Regional Weather Roundup
Issued by NWS

Home | Current Version | Previous Version | Graphics & Text | Print | Product List | Glossary On
Versions: 1 2 3 4 5 6 7 8 9 10 11 12 13 14 15 16 17 18 19 20 21 22 23 24 25 26 27 28 29 30 31 32 33 34 35 36 37 38 39 40 41 42 43 44 45 46 47 48 49 50
000
ASUS43 KDMX 302304
RWRIA

WEATHER ROUNDUP FOR IOWA
NATIONAL WEATHER SERVICE DES MOINES IA
  ISSUED BY NWS QUAD CITIES IA IL
500 PM CST FRI JAN 30 2015

NOTE: "FAIR" INDICATES FEW OR NO CLOUDS BELOW 12,000 FEET WITH NO
SIGNIFICANT WEATHER AND/OR OBSTRUCTIONS TO VISIBILITY.

* - THESE STATIONS ARE NOT NWS STATIONS...THUS NOT UNDER NWS
QUALITY CONTROL.  THEY ALSO DO NOT REPORT WEATHER SUCH
AS PRECIPITATION OR FOG.

IAZ001>003-012>014-020>022-031>034-043>046-310000-
   NORTHWEST IOWA

CITY           SKY/WX    TMP DP  RH WIND       PRES   REMARKS
CARROLL *      CLEAR     34  21  60 S10       30.33F WCI  26
CHEROKEE *     CLEAR     34  26  72 S12       30.28F WCI  26
DENNISON *     PTCLDY    34  23  64 S10G16    30.30F WCI  26
LE MARS *      CLEAR     36  28  75 S13       30.26F WCI  27
ORANGE CITY *  CLEAR     36  27  69 S13       30.25F WCI  27
SHELDON *      CLEAR     32  28  86 S15G21    30.24F WCI  22
SIOUX CITY     PTCLDY    38  27  64 SE12      30.28F WCI  30
SPENCER        CLEAR     34  25  69 S12       30.27F WCI  25
STORM LAKE *   CLEAR     34  25  69 S13       30.29F WCI  25
$$

IAZ055>058-069>071-079>083-090>094-310000-
   SOUTHWEST IOWA

CITY           SKY/WX    TMP DP  RH WIND       PRES   REMARKS
ATLANTIC *     PTCLDY    36  21  55 S9        30.35F WCI  29
AUDUBON *      PTCLDY    34  19  55 S8        30.35F WCI  27
CLARINDA *     PTCLDY    34  21  60 S6        30.40S WCI  29
COUNCIL BLFS * PTCLDY    34  25  69 S10       30.33F WCI  26
CRESTON *      PTCLDY    32  18  55 S9        30.37F WCI  24
HARLAN *       PTCLDY    34  23  64 S10       30.37F WCI  26
LAMONI         CLEAR     33  13  43 S6        30.39F WCI  28
RED OAK *      PTCLDY    34  21  60 S7        30.37F WCI  28
SHENANDOAH *   CLOUDY    36  23  60 S8        30.38F WCI  29
$$

IAZ047>049-059>061-072>074-084-310000-
   CENTRAL IOWA

CITY           SKY/WX    TMP DP  RH WIND       PRES   REMARKS
AMES           CLEAR     31  14  49 S8        30.37F WCI  23
ANKENY *       CLEAR     32  12  43 S6        30.38F WCI  26
BOONE *        CLEAR     32  18  55 S7        30.35F WCI  26
CHARITON *     PTCLDY    34  18  51 S6        30.39F WCI  29
DES MOINES     MOCLDY    35  13  40 S8        30.39F WCI  29
GRINNELL *     CLEAR     30  13  51 S7        30.40F WCI  23
KNOXVILLE *    CLEAR     32  12  43 S7        30.39F WCI  26
MARSHALLTOWN   CLEAR     29  14  53 S8        30.38F WCI  21
PELLA *        CLEAR     33  16  49 S3        30.42F
PERRY *          N/A     34  21  59 S8        30.36F WCI  27
$$

IAZ004>006-015-016-023>025-035-036-310000-
   NORTH CENTRAL IOWA

CITY           SKY/WX    TMP DP  RH WIND       PRES   REMARKS
ALGONA *       CLEAR     32  25  74 S16       30.30F WCI  21
CLARION *      CLEAR     30  21  69 S12       30.34F WCI  21
ESTHERVILLE    CLEAR     30  24  78 S18       30.27F WCI  18
FORT DODGE *   CLEAR     32  18  55 S12       30.33F WCI  23
MASON CITY     CLEAR     28  18  66 S10       30.33F WCI  19
WEBSTER CITY * CLEAR     32  21  64 S10       30.34S WCI  24
IOWA FALLS *   FAIR      30  18  60 S12       30.36F WCI  20
$$

IAZ007>011-017>019-026>030-037>042-050>054-066-310000-
   NORTHEAST IOWA

CITY           SKY/WX    TMP DP  RH WIND       PRES   REMARKS
CEDAR RAPIDS   CLEAR     28  14  55 S8        30.40F WCI  20
CHARLES CITY * CLEAR     28  12  50 S12       30.36F WCI  18
CLINTON *      CLEAR     27  16  63 W5        30.45F WCI  21
DECORAH *      CLEAR     27   5  39 SW5       30.34F WCI  21
DUBUQUE        CLEAR     25  14  63 SW6       30.39F WCI  18
MONTICELLO *   CLEAR     28  14  54 S6        30.40F WCI  22
OELWEIN *      CLEAR     27  12  54 S9        30.37F WCI  17
WATERLOO       CLEAR     27  11  51 S9        30.38F WCI  18
$$

IAZ064-065-067-068-078-310000-
   EAST CENTRAL IOWA

CITY           SKY/WX    TMP DP  RH WIND       PRES   REMARKS
DAVENPORT      CLEAR     27  16  63 SW5       30.43F WCI  22
IOWA CITY      CLEAR     30  17  58 S6        30.44F WCI  24
MUSCATINE *    FAIR      32  18  55 SW7       30.45F WCI  26
QUAD CITIES    CLEAR     28  16  60 SW5       30.44F WCI  23
$$

IAZ062-063-075>077-085>089-095>099-310000-
   SOUTHEAST IOWA

CITY           SKY/WX    TMP DP  RH WIND       PRES   REMARKS
BURLINGTON     CLEAR     31  16  54 S5        30.44F WCI  26
FAIRFIELD *    CLEAR     32  14  47 CALM      30.44S
FORT MADISON * CLEAR     30  18  59 CALM      30.45S
KEOKUK *       CLEAR     32  18  55 S5        30.44S WCI  27
OTTUMWA        CLEAR     32  14  47 S3        30.42F
WASHINGTON *   FAIR      30  18  59 SW6       30.43F WCI  24
$$

ABBREVIATIONS USED IN REMARKS
   TC - TEMPERATURES IN CELSIUS
  WCI - WIND CHILL INDEX
   HX - HEAT INDEX
  VSB - VISIBILITY
$$



USA.gov is the U.S. government's official web portal to all federal, state and local government web resources and services.